Weather in Tylovay

Russia / Udmurt Republic     57°29′33″N   53°47′22″E
temp.,
°C
wind,
m/s
gust,
m/s
humid.,
%
clouds,
%
prec.,
mm/h
press.,
hPa
HPBL,
m
12 may, wed
wed1201:00+13ne37893 0.0 1029124
04:00+11ene36905 0.0 1029108
07:00+15ene357649 0.0 1030254
10:00+19e33597 0.0 1029602
13:00+23e22465 0.0 10291336
16:00+25ssw12391 0.0 10281913
19:00+22ese11516 0.0 102712
22:00+17se226598 0.0 102811
13 may, thu
thu1301:00+16se12675 0.0 102811
04:00+14se11715 0.0 102811
07:00+19ese12604 0.0 1028153
10:00+23sse23460 0.0 1028756
13:00+25s34340 0.0 10272038
16:00+26ssw44285 0.0 10262133
19:00+22s254777 0.0 102594
22:00+18ssw225474 0.0 102619
14 may, fri
fri1401:00+16sse23609 0.0 102538
04:00+15sse346581 0.0 102572
07:00+18s3862100 0.1 1025261
10:00+22s584391 0.2 1024749
13:00+26ssw610329 0.0 10231756
16:00+26sw5937100 0.0 10221900
19:00+23sw3853100 0.0 1021213
22:00+18sw3665100 0.0 1021108
15 may, sat
sat1501:00+16ssw376972 0.0 1021134
04:00+15ssw3773100 0.0 1022122
07:00+18ssw396143 0.0 1021273
10:00+24ssw594098 0.0 1021760
13:00+27sw6103193 0.0 10201666
16:00+27sw5933100 0.0 10191538
19:00+24ssw4104599 0.0 1019343
22:00+20sw5145129 0.0 1018401
16 may, sun
sun1601:00+17sw3125938 0.0 1019226
04:00+15ssw38655 0.0 1019138
07:00+19ssw410555 0.0 1019281
10:00+25ssw58385 0.0 1018773
13:00+28sw69285 0.0 10173231
16:00+28sw68315 0.0 10163210
19:00+24sw38432 0.0 1015255
22:00+20ssw4115797 0.0 1015239